Location: NJAA Observatory
(40.6819°N, 74.8979°W)
Time: 18:59:34
(UTC-04:00)

Cosmos 2237 Rocket - Visible Passes

Search period start: 27 July 2016 00:00
Search period end: 06 August 2016 00:00
Orbit: 833 x 852 km, 71.0° (Epoch: 27 July)

Date Brightness Start Highest point End Pass type
(mag) Time Alt. Az. Time Alt. Az. Time Alt. Az.
01 Aug 4.7 05:15:13 10° SE 05:19:07 19° E 05:23:03 10° NE visible
02 Aug 4.7 05:00:35 10° SE 05:04:20 18° E 05:08:06 10° ENE visible
03 Aug 4.7 04:45:57 10° SE 04:49:32 17° E 04:53:09 10° ENE visible
04 Aug 4.7 04:31:21 10° SE 04:34:46 16° E 04:38:11 10° ENE visible
05 Aug 4.7 04:16:45 10° SE 04:19:59 16° E 04:23:12 10° ENE visible
